| time (UTC) | temp C | wind direction | speed KPH | gust KPH | rain 1hr cm | rain 24hr cm | rain mn cm | humidity % | barometer mb |
| 20260507000032 | 9 | 254 | 11.3 | 19.3 | 0.00 | 0.00 | 0.00 | 72 | 1024.3 |
| 20260506235515 | 9 | 251 | 14.5 | 20.9 | 0.00 | 0.00 | 0.00 | 71 | 1024.3 |
| 20260506235011 | 9 | 246 | 14.5 | 20.9 | 0.00 | 0.00 | 0.00 | 70 | 1024.3 |
| 20260506234530 | 9 | 263 | 9.7 | 19.3 | 0.00 | 0.00 | 0.00 | 70 | 1024.2 |
| 20260506234015 | 9 | 246 | 12.9 | 20.9 | 0.00 | 0.00 | 0.00 | 70 | 1024.2 |
| 20260506233515 | 9 | 257 | 9.7 | 20.9 | 0.00 | 0.00 | 0.00 | 71 | 1024.2 |
| 20260506233031 | 9 | 256 | 12.9 | 20.9 | 0.00 | 0.00 | 0.00 | 71 | 1024.2 |
| 20260506232514 | 9 | 256 | 11.3 | 17.7 | 0.00 | 0.00 | 0.00 | 71 | 1024.1 |
| 20260506232015 | 9 | 270 | 9.7 | 16.1 | 0.00 | 0.00 | 0.00 | 71 | 1024.1 |
| 20260506231528 | 9 | 265 | 11.3 | 17.7 | 0.00 | 0.00 | 0.00 | 71 | 1024.1 |
| 20260506231018 | 9 | 261 | 9.7 | 19.3 | 0.00 | 0.00 | 0.00 | 71 | 1024.1 |
| 20260506230514 | 10 | 249 | 9.7 | 19.3 | 0.00 | 0.00 | 0.00 | 71 | 1024.0 |
| 20260506230031 | 9 | 261 | 12.9 | 22.5 | 0.00 | 0.00 | 0.00 | 70 | 1024.0 |
| 20260506225514 | 9 | 243 | 14.5 | 22.5 | 0.00 | 0.00 | 0.00 | 70 | 1023.9 |
| 20260506225015 | 10 | 240 | 12.9 | 22.5 | 0.00 | 0.00 | 0.00 | 69 | 1023.8 |
| 20260506224535 | 10 | 269 | 12.9 | 22.5 | 0.00 | 0.00 | 0.00 | 69 | 1023.8 |
| 20260506224015 | 10 | 260 | 16.1 | 22.5 | 0.00 | 0.00 | 0.00 | 67 | 1023.8 |
| 20260506223512 | 10 | 252 | 11.3 | 20.9 | 0.00 | 0.00 | 0.00 | 67 | 1023.9 |
| 20260506223031 | 10 | 329 | 12.9 | 22.5 | 0.00 | 0.00 | 0.00 | 66 | 1023.9 |
| 20260506222512 | 10 | 262 | 14.5 | 22.5 | 0.00 | 0.00 | 0.00 | 64 | 1023.8 |
| 20260506222015 | 10 | 273 | 11.3 | 19.3 | 0.00 | 0.00 | 0.00 | 66 | 1023.9 |
| 20260506221531 | 10 | 269 | 11.3 | 19.3 | 0.00 | 0.00 | 0.00 | 65 | 1023.8 |
| 20260506221011 | 10 | 245 | 12.9 | 19.3 | 0.00 | 0.00 | 0.00 | 65 | 1023.8 |
| 20260506220515 | 10 | 207 | 12.9 | 17.7 | 0.00 | 0.00 | 0.00 | 64 | 1023.8 |
| 20260506220034 | 10 | 281 | 12.9 | 17.7 | 0.00 | 0.00 | 0.00 | 64 | 1023.8 |
| 20260506215510 | 10 | 260 | 11.3 | 17.7 | 0.00 | 0.00 | 0.00 | 64 | 1023.8 |
| 20260506215012 | 10 | 275 | 11.3 | 19.3 | 0.00 | 0.00 | 0.00 | 63 | 1023.8 |
| 20260506214528 | 10 | 261 | 11.3 | 19.3 | 0.00 | 0.00 | 0.00 | 66 | 1023.7 |
| 20260506214015 | 10 | 256 | 12.9 | 20.9 | 0.00 | 0.00 | 0.00 | 65 | 1023.7 |
| 20260506213511 | 10 | 263 | 11.3 | 20.9 | 0.00 | 0.00 | 0.00 | 66 | 1023.8 |
| 20260506213027 | 10 | 253 | 16.1 | 20.9 | 0.00 | 0.00 | 0.00 | 65 | 1023.7 |
| 20260506212512 | 10 | 230 | 14.5 | 20.9 | 0.00 | 0.00 | 0.00 | 63 | 1023.7 |
| 20260506212013 | 10 | 269 | 9.7 | 19.3 | 0.00 | 0.00 | 0.00 | 63 | 1023.6 |
| 20260506211531 | 10 | 238 | 11.3 | 19.3 | 0.00 | 0.00 | 0.00 | 63 | 1023.6 |
| 20260506211014 | 10 | 256 | 6.4 | 14.5 | 0.00 | 0.00 | 0.00 | 63 | 1023.6 |
| 20260506210516 | 10 | 291 | 8.0 | 12.9 | 0.00 | 0.00 | 0.00 | 60 | 1023.6 |
| 20260506210032 | 10 | 319 | 3.2 | 11.3 | 0.00 | 0.00 | 0.00 | 59 | 1023.5 |
| 20260506205511 | 11 | 315 | 6.4 | 11.3 | 0.00 | 0.00 | 0.00 | 60 | 1023.5 |
| 20260506205012 | 11 | 254 | 4.8 | 12.9 | 0.00 | 0.00 | 0.00 | 60 | 1023.5 |
| 20260506204529 | 10 | 222 | 4.8 | 12.9 | 0.00 | 0.00 | 0.00 | 61 | 1023.4 |
| 20260506204012 | 11 | 275 | 6.4 | 11.3 | 0.00 | 0.00 | 0.00 | 59 | 1023.2 |
| 20260506203512 | 11 | 317 | 4.8 | 9.7 | 0.00 | 0.00 | 0.00 | 60 | 1023.3 |
| 20260506203030 | 11 | 306 | 4.8 | 9.7 | 0.00 | 0.00 | 0.00 | 60 | 1023.3 |
| 20260506202514 | 11 | 279 | 1.6 | 6.4 | 0.00 | 0.00 | 0.00 | 59 | 1023.2 |
| 20260506202012 | 11 | 0 | 0.0 | 3.2 | 0.00 | 0.00 | 0.00 | 59 | 1023.2 |
| 20260506201540 | 11 | 348 | 0.0 | 12.9 | 0.00 | 0.00 | 0.00 | 60 | 1023.1 |
| 20260506201014 | 11 | 306 | 4.8 | 12.9 | 0.00 | 0.00 | 0.00 | 59 | 1023.2 |
| 20260506200514 | 11 | 287 | 0.0 | 4.8 | 0.00 | 0.00 | 0.00 | 60 | 1023.2 |
| 20260506200028 | 11 | 0 | 0.0 | 4.8 | 0.00 | 0.00 | 0.00 | 60 | 1023.2 |
| 20260506195514 | 11 | 10 | 0.0 | 4.8 | 0.00 | 0.00 | 0.00 | 59 | 1023.2 |
| 20260506195016 | 11 | 335 | 0.0 | 3.2 | 0.00 | 0.00 | 0.00 | 60 | 1023.2 |
| 20260506194539 | 11 | 0 | 0.0 | 3.2 | 0.00 | 0.00 | 0.00 | 59 | 1023.1 |
| 20260506194017 | 12 | 0 | 0.0 | 3.2 | 0.00 | 0.00 | 0.00 | 58 | 1023.1 |
| 20260506193512 | 12 | 0 | 0.0 | 3.2 | 0.00 | 0.00 | 0.00 | 58 | 1023.1 |
| 20260506193033 | 11 | 335 | 0.0 | 3.2 | 0.00 | 0.00 | 0.00 | 59 | 1023.1 |
| 20260506192517 | 11 | 331 | 0.0 | 3.2 | 0.00 | 0.00 | 0.00 | 59 | 1023.1 |
| 20260506192014 | 11 | 333 | 0.0 | 3.2 | 0.00 | 0.00 | 0.00 | 61 | 1023.0 |
| 20260506191528 | 11 | 0 | 0.0 | 6.4 | 0.00 | 0.00 | 0.00 | 61 | 1023.0 |
| 20260506191015 | 11 | 0 | 0.0 | 6.4 | 0.00 | 0.00 | 0.00 | 62 | 1022.9 |
| 20260506190514 | 10 | 0 | 0.0 | 4.8 | 0.00 | 0.00 | 0.00 | 63 | 1022.9 |
| 20260506190028 | 10 | 0 | 0.0 | 3.2 | 0.00 | 0.00 | 0.00 | 63 | 1022.8 |
| 20260506185515 | 10 | 26 | 1.6 | 4.8 | 0.00 | 0.00 | 0.00 | 63 | 1022.8 |
| 20260506185014 | 10 | 0 | 0.0 | 4.8 | 0.00 | 0.00 | 0.00 | 62 | 1022.8 |
| 20260506184536 | 11 | 350 | 1.6 | 4.8 | 0.00 | 0.00 | 0.00 | 61 | 1022.8 |
| 20260506184014 | 11 | 0 | 0.0 | 3.2 | 0.00 | 0.00 | 0.00 | 61 | 1022.8 |
| 20260506183514 | 11 | 349 | 0.0 | 4.8 | 0.00 | 0.00 | 0.00 | 61 | 1022.7 |
| 20260506183030 | 11 | 0 | 0.0 | 4.8 | 0.00 | 0.00 | 0.00 | 63 | 1022.7 |
| 20260506182513 | 10 | 0 | 0.0 | 3.2 | 0.00 | 0.00 | 0.00 | 65 | 1022.7 |
| 20260506182018 | 10 | 334 | 0.0 | 4.8 | 0.00 | 0.00 | 0.00 | 65 | 1022.7 |
| 20260506181530 | 10 | 0 | 0.0 | 4.8 | 0.00 | 0.00 | 0.00 | 65 | 1022.7 |
| 20260506181011 | 10 | 0 | 0.0 | 4.8 | 0.00 | 0.00 | 0.00 | 65 | 1022.7 |
| 20260506180515 | 10 | 327 | 1.6 | 4.8 | 0.00 | 0.00 | 0.00 | 65 | 1022.7 |
| 20260506180030 | 10 | 0 | 0.0 | 4.8 | 0.00 | 0.00 | 0.00 | 65 | 1022.7 |
| 20260506175516 | 10 | 15 | 0.0 | 4.8 | 0.00 | 0.00 | 0.00 | 65 | 1022.7 |
| 20260506175014 | 10 | 13 | 1.6 | 4.8 | 0.00 | 0.00 | 0.00 | 66 | 1022.7 |
| 20260506174530 | 10 | 9 | 0.0 | 4.8 | 0.00 | 0.00 | 0.00 | 67 | 1022.7 |
| 20260506174014 | 9 | 5 | 0.0 | 4.8 | 0.00 | 0.00 | 0.00 | 69 | 1022.7 |
| 20260506173516 | 9 | 347 | 0.0 | 4.8 | 0.00 | 0.00 | 0.00 | 69 | 1022.8 |
| 20260506173030 | 10 | 0 | 1.6 | 4.8 | 0.00 | 0.00 | 0.00 | 70 | 1022.7 |
| 20260506172514 | 9 | 32 | 1.6 | 8.0 | 0.00 | 0.00 | 0.00 | 70 | 1022.7 |
| 20260506172017 | 8 | 344 | 3.2 | 8.0 | 0.00 | 0.00 | 0.00 | 70 | 1022.8 |
| 20260506171542 | 8 | 338 | 4.8 | 12.9 | 0.00 | 0.00 | 0.00 | 71 | 1022.8 |
| 20260506171011 | 8 | 9 | 6.4 | 12.9 | 0.00 | 0.00 | 0.00 | 70 | 1022.8 |
| 20260506170513 | 8 | 350 | 8.0 | 12.9 | 0.00 | 0.00 | 0.00 | 69 | 1022.8 |
| 20260506170029 | 8 | 348 | 1.6 | 12.9 | 0.00 | 0.00 | 0.00 | 70 | 1022.9 |
| 20260506165516 | 8 | 20 | 4.8 | 12.9 | 0.00 | 0.00 | 0.00 | 72 | 1022.9 |
| 20260506165018 | 8 | 9 | 6.4 | 9.7 | 0.00 | 0.00 | 0.00 | 72 | 1022.8 |
| 20260506164528 | 8 | 9 | 4.8 | 8.0 | 0.00 | 0.00 | 0.00 | 73 | 1022.8 |
| 20260506164019 | 8 | 317 | 3.2 | 11.3 | 0.00 | 0.00 | 0.00 | 73 | 1022.8 |
| 20260506163518 | 8 | 334 | 6.4 | 16.1 | 0.00 | 0.00 | 0.00 | 74 | 1022.7 |
| 20260506163038 | 7 | 10 | 8.0 | 16.1 | 0.00 | 0.00 | 0.00 | 74 | 1022.7 |
| 20260506162517 | 7 | 336 | 11.3 | 17.7 | 0.00 | 0.00 | 0.00 | 73 | 1022.6 |
| 20260506162015 | 7 | 329 | 12.9 | 17.7 | 0.00 | 0.00 | 0.00 | 73 | 1022.6 |
| 20260506161527 | 8 | 347 | 9.7 | 16.1 | 0.00 | 0.00 | 0.00 | 74 | 1022.6 |
| 20260506161014 | 8 | 360 | 6.4 | 16.1 | 0.00 | 0.00 | 0.00 | 73 | 1022.4 |
| 20260506160514 | 8 | 316 | 8.0 | 16.1 | 0.00 | 0.00 | 0.00 | 73 | 1022.5 |
| 20260506160032 | 8 | 360 | 6.4 | 14.5 | 0.00 | 0.00 | 0.00 | 73 | 1022.5 |
| 20260506155512 | 8 | 360 | 6.4 | 14.5 | 0.00 | 0.00 | 0.00 | 74 | 1022.3 |
| 20260506155014 | 8 | 66 | 6.4 | 14.5 | 0.00 | 0.00 | 0.00 | 74 | 1022.3 |
| 20260506154537 | 8 | 47 | 4.8 | 14.5 | 0.00 | 0.00 | 0.00 | 73 | 1022.2 |
| 20260506154019 | 7 | 320 | 4.8 | 14.5 | 0.00 | 0.00 | 0.00 | 74 | 1022.2 |
| 20260506153514 | 7 | 302 | 8.0 | 14.5 | 0.00 | 0.00 | 0.00 | 75 | 1022.1 |
| 20260506153027 | 7 | 33 | 3.2 | 17.7 | 0.00 | 0.00 | 0.00 | 75 | 1022.0 |
| 20260506152512 | 7 | 310 | 6.4 | 19.3 | 0.00 | 0.00 | 0.00 | 75 | 1022.0 |
| 20260506152012 | 7 | 315 | 11.3 | 19.3 | 0.00 | 0.00 | 0.00 | 75 | 1022.0 |
| 20260506151530 | 7 | 344 | 4.8 | 16.1 | 0.00 | 0.00 | 0.00 | 76 | 1022.0 |
| 20260506151011 | 7 | 32 | 6.4 | 16.1 | 0.00 | 0.00 | 0.00 | 75 | 1022.0 |
| 20260506150512 | 7 | 80 | 4.8 | 16.1 | 0.00 | 0.00 | 0.00 | 76 | 1022.0 |
| 20260506150031 | 7 | 41 | 4.8 | 12.9 | 0.00 | 0.00 | 0.00 | 76 | 1022.0 |
| 20260506145512 | 7 | 9 | 4.8 | 14.5 | 0.00 | 0.00 | 0.00 | 75 | 1022.0 |
| 20260506145012 | 7 | 64 | 3.2 | 14.5 | 0.00 | 0.00 | 0.00 | 75 | 1021.9 |
| 20260506144529 | 7 | 92 | 6.4 | 14.5 | 0.00 | 0.00 | 0.00 | 75 | 1021.8 |
| 20260506144014 | 7 | 9 | 3.2 | 17.7 | 0.00 | 0.00 | 0.00 | 75 | 1021.8 |
| 20260506143513 | 7 | 63 | 4.8 | 16.1 | 0.00 | 0.00 | 0.00 | 75 | 1021.8 |
| 20260506143028 | 7 | 296 | 4.8 | 16.1 | 0.00 | 0.00 | 0.00 | 75 | 1021.8 |
| 20260506142513 | 7 | 44 | 4.8 | 16.1 | 0.00 | 0.00 | 0.00 | 75 | 1021.7 |
| 20260506142012 | 7 | 11 | 4.8 | 14.5 | 0.00 | 0.00 | 0.00 | 75 | 1021.7 |
| 20260506141532 | 7 | 352 | 6.4 | 14.5 | 0.00 | 0.00 | 0.00 | 75 | 1021.7 |
| 20260506141011 | 7 | 281 | 6.4 | 20.9 | 0.00 | 0.00 | 0.00 | 75 | 1021.6 |
| 20260506140520 | 7 | 59 | 4.8 | 20.9 | 0.00 | 0.00 | 0.00 | 76 | 1021.7 |
| 20260506140037 | 7 | 138 | 9.7 | 19.3 | 0.00 | 0.00 | 0.00 | 76 | 1021.7 |
| 20260506135512 | 7 | 328 | 8.0 | 19.3 | 0.00 | 0.00 | 0.00 | 77 | 1021.6 |
| 20260506135014 | 7 | 323 | 6.4 | 22.5 | 0.00 | 0.00 | 0.00 | 76 | 1021.6 |
| 20260506134529 | 7 | 327 | 9.7 | 22.5 | 0.00 | 0.00 | 0.00 | 76 | 1021.5 |
| 20260506134013 | 7 | 13 | 8.0 | 24.1 | 0.00 | 0.00 | 0.00 | 77 | 1021.4 |
| 20260506133514 | 7 | 327 | 9.7 | 24.1 | 0.00 | 0.00 | 0.00 | 76 | 1021.4 |
| 20260506133028 | 7 | 5 | 11.3 | 24.1 | 0.00 | 0.00 | 0.00 | 76 | 1021.3 |
| 20260506132512 | 7 | 44 | 8.0 | 19.3 | 0.00 | 0.00 | 0.00 | 76 | 1021.1 |
| 20260506132015 | 7 | 29 | 6.4 | 14.5 | 0.00 | 0.00 | 0.00 | 76 | 1021.1 |
| 20260506131529 | 7 | 37 | 3.2 | 14.5 | 0.00 | 0.00 | 0.00 | 76 | 1021.1 |
| 20260506131014 | 7 | 55 | 4.8 | 14.5 | 0.00 | 0.00 | 0.00 | 77 | 1021.1 |
| 20260506130518 | 7 | 21 | 3.2 | 14.5 | 0.00 | 0.00 | 0.00 | 77 | 1021.1 |
| 20260506130028 | 7 | 9 | 4.8 | 14.5 | 0.00 | 0.00 | 0.00 | 77 | 1021.0 |
| 20260506125513 | 7 | 222 | 3.2 | 14.5 | 0.00 | 0.00 | 0.00 | 77 | 1021.1 |
| 20260506125013 | 7 | 70 | 3.2 | 14.5 | 0.00 | 0.00 | 0.00 | 78 | 1021.0 |
| 20260506124528 | 7 | 40 | 4.8 | 14.5 | 0.00 | 0.00 | 0.00 | 77 | 1020.9 |
| 20260506124014 | 7 | 263 | 4.8 | 16.1 | 0.00 | 0.00 | 0.00 | 77 | 1021.0 |
| 20260506123514 | 7 | 11 | 3.2 | 17.7 | 0.00 | 0.00 | 0.00 | 76 | 1021.0 |
| 20260506123027 | 7 | 163 | 4.8 | 17.7 | 0.00 | 0.00 | 0.00 | 77 | 1020.8 |
| 20260506122512 | 7 | 352 | 4.8 | 19.3 | 0.00 | 0.00 | 0.00 | 78 | 1020.9 |
| 20260506122014 | 7 | 21 | 8.0 | 22.5 | 0.00 | 0.00 | 0.00 | 79 | 1020.9 |
| 20260506121528 | 7 | 316 | 12.9 | 22.5 | 0.00 | 0.00 | 0.00 | 79 | 1020.9 |
| 20260506121014 | 7 | 334 | 8.0 | 22.5 | 0.00 | 0.00 | 0.00 | 79 | 1020.9 |
| 20260506120514 | 7 | 316 | 12.9 | 22.5 | 0.00 | 0.00 | 0.00 | 79 | 1020.8 |
| 20260506120034 | 7 | 9 | 12.9 | 22.5 | 0.00 | 0.00 | 0.00 | 78 | 1020.7 |
| 20260506115511 | 8 | 332 | 12.9 | 24.1 | 0.00 | 0.00 | 0.00 | 79 | 1020.7 |
| 20260506115016 | 8 | 9 | 4.8 | 24.1 | 0.00 | 0.00 | 0.00 | 79 | 1020.7 |
| 20260506114529 | 8 | 306 | 9.7 | 22.5 | 0.00 | 0.00 | 0.00 | 80 | 1020.6 |
| 20260506114015 | 8 | 294 | 6.4 | 20.9 | 0.00 | 0.00 | 0.00 | 79 | 1020.6 |
| 20260506113515 | 8 | 274 | 11.3 | 17.7 | 0.00 | 0.00 | 0.00 | 80 | 1020.5 |
| 20260506113028 | 8 | 322 | 6.4 | 16.1 | 0.00 | 0.00 | 0.00 | 80 | 1020.4 |
| 20260506112515 | 8 | 331 | 4.8 | 17.7 | 0.00 | 0.00 | 0.00 | 79 | 1020.4 |
| 20260506112012 | 8 | 287 | 8.0 | 19.3 | 0.00 | 0.00 | 0.00 | 80 | 1020.4 |
| 20260506111530 | 8 | 60 | 9.7 | 17.7 | 0.00 | 0.00 | 0.00 | 79 | 1020.4 |
| 20260506111012 | 8 | 28 | 6.4 | 16.1 | 0.00 | 0.00 | 0.00 | 79 | 1020.3 |
| 20260506110514 | 8 | 15 | 4.8 | 12.9 | 0.00 | 0.00 | 0.00 | 79 | 1020.3 |
| 20260506110029 | 8 | 337 | 3.2 | 12.9 | 0.00 | 0.00 | 0.00 | 79 | 1020.2 |
| 20260506105514 | 8 | 9 | 4.8 | 12.9 | 0.00 | 0.00 | 0.00 | 79 | 1020.1 |
| 20260506105015 | 8 | 26 | 3.2 | 14.5 | 0.00 | 0.00 | 0.00 | 79 | 1020.1 |
| 20260506104528 | 8 | 274 | 3.2 | 14.5 | 0.00 | 0.00 | 0.00 | 79 | 1020.2 |
| 20260506104015 | 8 | 303 | 3.2 | 9.7 | 0.00 | 0.00 | 0.00 | 80 | 1020.1 |
| 20260506103512 | 8 | 255 | 3.2 | 9.7 | 0.00 | 0.00 | 0.00 | 79 | 1020.1 |
| 20260506103029 | 8 | 333 | 1.6 | 8.0 | 0.00 | 0.00 | 0.00 | 80 | 1020.1 |
| 20260506102511 | 8 | 44 | 3.2 | 9.7 | 0.00 | 0.00 | 0.00 | 80 | 1020.2 |
| 20260506102015 | 8 | 337 | 3.2 | 12.9 | 0.00 | 0.00 | 0.00 | 80 | 1020.2 |
| 20260506101530 | 7 | 344 | 3.2 | 12.9 | 0.00 | 0.00 | 0.00 | 80 | 1020.2 |
| 20260506101015 | 7 | 9 | 3.2 | 8.0 | 0.00 | 0.00 | 0.00 | 81 | 1020.2 |
| 20260506100514 | 7 | 154 | 3.2 | 9.7 | 0.00 | 0.00 | 0.00 | 80 | 1020.1 |
| 20260506100030 | 7 | 272 | 3.2 | 9.7 | 0.00 | 0.00 | 0.00 | 81 | 1020.1 |
| 20260506095517 | 7 | 46 | 3.2 | 9.7 | 0.00 | 0.00 | 0.00 | 81 | 1020.1 |
| 20260506095014 | 7 | 336 | 1.6 | 12.9 | 0.00 | 0.00 | 0.00 | 81 | 1020.1 |
| 20260506094530 | 7 | 322 | 6.4 | 12.9 | 0.00 | 0.00 | 0.00 | 81 | 1019.9 |
| 20260506094014 | 7 | 348 | 3.2 | 8.0 | 0.00 | 0.00 | 0.00 | 80 | 1019.9 |
| 20260506093517 | 7 | 340 | 3.2 | 12.9 | 0.00 | 0.00 | 0.00 | 81 | 1019.9 |
| 20260506093047 | 7 | 9 | 3.2 | 12.9 | 0.00 | 0.00 | 0.00 | 81 | 1019.9 |
| 20260506092515 | 7 | 49 | 4.8 | 9.7 | 0.00 | 0.00 | 0.00 | 81 | 1019.9 |
| 20260506092013 | 7 | 14 | 3.2 | 12.9 | 0.00 | 0.00 | 0.00 | 81 | 1019.8 |
| 20260506091529 | 7 | 9 | 3.2 | 14.5 | 0.00 | 0.00 | 0.00 | 80 | 1019.8 |
| 20260506091014 | 7 | 15 | 3.2 | 14.5 | 0.00 | 0.00 | 0.00 | 80 | 1019.8 |
| 20260506090513 | 7 | 308 | 4.8 | 12.9 | 0.00 | 0.00 | 0.00 | 80 | 1019.8 |
| 20260506090027 | 7 | 329 | 1.6 | 8.0 | 0.00 | 0.00 | 0.00 | 80 | 1019.9 |
| 20260506085535 | 7 | 5 | 1.6 | 8.0 | 0.00 | 0.00 | 0.00 | 80 | 1019.8 |
| 20260506085013 | 8 | 309 | 3.2 | 9.7 | 0.00 | 0.00 | 0.00 | 79 | 1019.8 |
| 20260506084527 | 8 | 13 | 3.2 | 11.3 | 0.00 | 0.00 | 0.00 | 79 | 1019.8 |
| 20260506084017 | 8 | 30 | 3.2 | 11.3 | 0.00 | 0.00 | 0.00 | 78 | 1019.8 |
| 20260506083514 | 8 | 20 | 1.6 | 11.3 | 0.00 | 0.00 | 0.00 | 78 | 1019.8 |
| 20260506083026 | 8 | 13 | 3.2 | 17.7 | 0.00 | 0.00 | 0.00 | 78 | 1019.7 |
| 20260506082518 | 8 | 352 | 3.2 | 17.7 | 0.00 | 0.00 | 0.00 | 78 | 1019.8 |
| 20260506082013 | 8 | 333 | 4.8 | 17.7 | 0.00 | 0.00 | 0.00 | 77 | 1019.7 |
| 20260506081529 | 8 | 93 | 3.2 | 12.9 | 0.00 | 0.00 | 0.00 | 77 | 1019.7 |
| 20260506081016 | 8 | 67 | 3.2 | 12.9 | 0.00 | 0.00 | 0.00 | 76 | 1019.6 |
| 20260506080511 | 8 | 86 | 4.8 | 14.5 | 0.00 | 0.00 | 0.00 | 76 | 1019.6 |
| 20260506073514 | 8 | 94 | 3.2 | 14.5 | 0.00 | 0.00 | 0.00 | 75 | 1019.6 |
| 20260506073030 | 8 | 268 | 3.2 | 16.1 | 0.00 | 0.00 | 0.00 | 75 | 1019.5 |
| 20260506072512 | 8 | 24 | 3.2 | 16.1 | 0.00 | 0.00 | 0.00 | 75 | 1019.5 |
| 20260506072015 | 8 | 360 | 3.2 | 12.9 | 0.00 | 0.00 | 0.00 | 74 | 1019.5 |
| 20260506071528 | 8 | 29 | 3.2 | 14.5 | 0.00 | 0.00 | 0.00 | 74 | 1019.4 |
| 20260506071014 | 8 | 352 | 6.4 | 17.7 | 0.00 | 0.00 | 0.00 | 74 | 1019.4 |
| 20260506070514 | 8 | 26 | 8.0 | 17.7 | 0.00 | 0.00 | 0.00 | 73 | 1019.4 |
| 20260506062513 | 8 | 317 | 6.4 | 19.3 | 0.00 | 0.00 | 0.00 | 73 | 1018.9 |
| 20260506062011 | 8 | 348 | 9.7 | 19.3 | 0.00 | 0.00 | 0.00 | 72 | 1019.1 |
| 20260506061527 | 8 | 11 | 6.4 | 19.3 | 0.00 | 0.00 | 0.00 | 72 | 1019.1 |
| 20260506061010 | 8 | 323 | 9.7 | 19.3 | 0.00 | 0.00 | 0.00 | 71 | 1019.1 |
| 20260506060513 | 8 | 26 | 9.7 | 25.7 | 0.00 | 0.00 | 0.00 | 73 | 1019.0 |
| 20260506051011 | 8 | 28 | 14.5 | 29.0 | 0.00 | 0.00 | 0.00 | 72 | 1018.7 |
| 20260506050514 | 9 | 303 | 12.9 | 24.1 | 0.00 | 0.00 | 0.00 | 70 | 1018.7 |
| 20260506045016 | 9 | 9 | 9.7 | 19.3 | 0.00 | 0.00 | 0.00 | 70 | 1018.6 |
| 20260506044531 | 9 | 20 | 8.0 | 20.9 | 0.00 | 0.00 | 0.00 | 70 | 1018.6 |
| 20260506044013 | 9 | 63 | 8.0 | 20.9 | 0.00 | 0.00 | 0.00 | 70 | 1018.5 |
| 20260506043515 | 10 | 86 | 6.4 | 17.7 | 0.00 | 0.00 | 0.00 | 69 | 1018.4 |
| 20260506043027 | 10 | 285 | 8.0 | 14.5 | 0.00 | 0.00 | 0.00 | 69 | 1018.4 |
| 20260506042510 | 10 | 86 | 4.8 | 16.1 | 0.00 | 0.00 | 0.00 | 69 | 1018.3 |
| 20260506042012 | 10 | 56 | 4.8 | 16.1 | 0.00 | 0.00 | 0.00 | 68 | 1018.2 |
| 20260506041530 | 10 | 200 | 4.8 | 19.3 | 0.00 | 0.00 | 0.00 | 70 | 1018.0 |
| 20260506041013 | 10 | 288 | 4.8 | 19.3 | 0.00 | 0.00 | 0.00 | 69 | 1017.9 |
| 20260506040512 | 10 | 302 | 4.8 | 14.5 | 0.00 | 0.00 | 0.00 | 68 | 1017.7 |
| 20260506040030 | 10 | 9 | 4.8 | 16.1 | 0.00 | 0.00 | 0.00 | 68 | 1017.6 |
| 20260506035510 | 11 | 13 | 6.4 | 16.1 | 0.00 | 0.00 | 0.00 | 65 | 1017.5 |
| 20260506035012 | 11 | 112 | 8.0 | 19.3 | 0.00 | 0.00 | 0.00 | 67 | 1017.3 |
| 20260506034530 | 11 | 232 | 8.0 | 19.3 | 0.00 | 0.00 | 0.00 | 66 | 1017.2 |
| 20260506034013 | 11 | 90 | 8.0 | 19.3 | 0.00 | 0.00 | 0.00 | 65 | 1017.1 |
| 20260506033512 | 11 | 21 | 8.0 | 24.1 | 0.00 | 0.00 | 0.00 | 64 | 1017.1 |
| 20260506033033 | 11 | 336 | 3.2 | 24.1 | 0.00 | 0.00 | 0.00 | 63 | 1017.1 |
| 20260506032514 | 12 | 331 | 11.3 | 24.1 | 0.00 | 0.00 | 0.00 | 59 | 1017.1 |
| 20260506032011 | 12 | 350 | 4.8 | 20.9 | 0.00 | 0.00 | 0.00 | 62 | 1017.0 |
| 20260506031528 | 12 | 329 | 9.7 | 22.5 | 0.00 | 0.00 | 0.00 | 60 | 1016.9 |
| 20260506031013 | 12 | 17 | 6.4 | 22.5 | 0.00 | 0.00 | 0.00 | 60 | 1016.8 |
| 20260506030512 | 12 | 340 | 11.3 | 24.1 | 0.00 | 0.00 | 0.00 | 61 | 1016.7 |
| 20260506030033 | 12 | 323 | 8.0 | 24.1 | 0.00 | 0.00 | 0.00 | 59 | 1016.7 |
| 20260506025513 | 12 | 316 | 11.3 | 20.9 | 0.00 | 0.00 | 0.00 | 58 | 1016.7 |
| 20260506025013 | 13 | 327 | 3.2 | 14.5 | 0.00 | 0.00 | 0.00 | 57 | 1016.6 |
| 20260506024529 | 13 | 298 | 4.8 | 17.7 | 0.00 | 0.00 | 0.00 | 56 | 1016.6 |
| 20260506024013 | 13 | 53 | 6.4 | 17.7 | 0.00 | 0.00 | 0.00 | 56 | 1016.4 |
| 20260506023512 | 13 | 71 | 6.4 | 19.3 | 0.00 | 0.00 | 0.00 | 54 | 1016.2 |
| 20260506023030 | 13 | 248 | 8.0 | 19.3 | 0.00 | 0.00 | 0.00 | 56 | 1016.3 |
| 20260506022512 | 13 | 267 | 11.3 | 17.7 | 0.00 | 0.00 | 0.00 | 55 | 1016.3 |
| 20260506022013 | 13 | 281 | 12.9 | 17.7 | 0.00 | 0.00 | 0.00 | 55 | 1016.3 |
| 20260506021531 | 13 | 251 | 9.7 | 16.1 | 0.00 | 0.00 | 0.00 | 53 | 1016.4 |
| 20260506021011 | 13 | 252 | 11.3 | 16.1 | 0.00 | 0.00 | 0.00 | 53 | 1016.3 |
| 20260506020512 | 13 | 293 | 9.7 | 20.9 | 0.00 | 0.00 | 0.00 | 55 | 1016.3 |
| 20260506020053 | 13 | 263 | 11.3 | 20.9 | 0.00 | 0.00 | 0.00 | 56 | 1016.3 |
| 20260506015513 | 14 | 280 | 8.0 | 16.1 | 0.00 | 0.00 | 0.00 | 57 | 1016.3 |
| 20260506015016 | 14 | 293 | 6.4 | 11.3 | 0.00 | 0.00 | 0.00 | 56 | 1016.1 |
| 20260506014527 | 15 | 302 | 4.8 | 14.5 | 0.00 | 0.00 | 0.00 | 54 | 1016.0 |
| 20260506014012 | 15 | 259 | 4.8 | 14.5 | 0.00 | 0.00 | 0.00 | 55 | 1016.0 |
| 20260506013514 | 15 | 335 | 3.2 | 14.5 | 0.00 | 0.00 | 0.00 | 52 | 1015.8 |
| 20260506013027 | 15 | 255 | 0.0 | 14.5 | 0.00 | 0.00 | 0.00 | 56 | 1015.7 |
| 20260506012511 | 15 | 297 | 8.0 | 14.5 | 0.00 | 0.00 | 0.00 | 53 | 1015.6 |
| 20260506012012 | 15 | 279 | 9.7 | 16.1 | 0.00 | 0.00 | 0.00 | 53 | 1015.6 |
| 20260506011533 | 15 | 250 | 12.9 | 16.1 | 0.00 | 0.00 | 0.00 | 52 | 1015.7 |
| 20260506011010 | 15 | 272 | 8.0 | 16.1 | 0.00 | 0.00 | 0.00 | 52 | 1015.7 |
| 20260506010511 | 15 | 293 | 9.7 | 16.1 | 0.00 | 0.00 | 0.00 | 56 | 1015.7 |
| 20260506010030 | 15 | 270 | 9.7 | 16.1 | 0.00 | 0.00 | 0.00 | 56 | 1015.7 |
| 20260506005517 | 15 | 263 | 11.3 | 17.7 | 0.00 | 0.00 | 0.00 | 56 | 1015.7 |
| 20260506005012 | 15 | 297 | 8.0 | 20.9 | 0.00 | 0.00 | 0.00 | 58 | 1015.8 |
| 20260506004539 | 15 | 273 | 12.9 | 24.1 | 0.00 | 0.00 | 0.00 | 56 | 1015.8 |
| 20260506004012 | 15 | 236 | 14.5 | 29.0 | 0.00 | 0.00 | 0.00 | 56 | 1015.8 |
| 20260506003512 | 15 | 227 | 12.9 | 29.0 | 0.00 | 0.00 | 0.00 | 57 | 1015.8 |
| 20260506003027 | 15 | 241 | 9.7 | 19.3 | 0.00 | 0.00 | 0.00 | 56 | 1015.8 |
| 20260506002512 | 15 | 235 | 14.5 | 19.3 | 0.00 | 0.00 | 0.00 | 55 | 1015.7 |
| 20260506002011 | 16 | 269 | 9.7 | 20.9 | 0.00 | 0.00 | 0.00 | 55 | 1015.8 |
| 20260506001527 | 16 | 241 | 11.3 | 20.9 | 0.00 | 0.00 | 0.00 | 55 | 1015.8 |
| 20260506001012 | 15 | 281 | 12.9 | 20.9 | 0.00 | 0.00 | 0.00 | 55 | 1015.7 |
| 20260506000511 | 16 | 267 | 8.0 | 16.1 | 0.00 | 0.00 | 0.00 | 55 | 1015.7 |